Location: Helion Bumpstead
(52.0500°N, 0.4000°E)
Time: 21:43:13
(UTC+00:00)

Cosmos 1725 Rocket - Pass Details

Date: 14 February 2026
Orbit: 962 x 989 km, 82.9° (Epoch: 11 March)

Event Time Altitude Azimuth Distance (km) Brightness Sun altitude
Rises 05:27:42 0° 152° (SSE) 3,636 7.4 -17.1°
Reaches altitude 10° 05:30:29 10° 142° (SE) 2,694 6.8 -16.7°
Maximum altitude 05:35:41 30° 84° (E) 1,671 6.0 -15.9°
Drops below altitude 10° 05:40:54 10° 27° (NNE) 2,715 6.6 -15.1°
Sets 05:43:43 0° 17° (NNE) 3,670 7.2 -14.6°
